Satellite-Ground Cal/Val Region Overpasses Predictions

Prediction of Satellite NPP Overpassing Cal/Val Region: PacNW

Region Location: (Latitude: 10.00, Longitude: 139.50) to (Latitude: 22.70, Longitude: 165.60).

Table of predicted overpasses for the next 14.0 days since TLE Epoch: 7/6/2018
Interval Starting Time Starting Location Ending Time Ending Location
1 07/07/2018 03:10:50 ( 10.01, 152.04) 07/07/2018 03:14:26 ( 22.69, 149.02)
2 07/07/2018 15:42:43 ( 22.69, 149.28) 07/07/2018 15:46:19 ( 10.00, 146.27)
3 07/08/2018 02:51:49 ( 10.05, 156.79) 07/08/2018 02:55:24 ( 22.67, 153.79)
4 07/08/2018 15:23:42 ( 22.65, 154.03) 07/08/2018 15:27:17 ( 10.03, 151.03)
5 07/09/2018 02:32:46 ( 10.03, 161.56) 07/09/2018 02:36:21 ( 22.65, 158.55)
6 07/09/2018 15:04:39 ( 22.67, 158.80) 07/09/2018 15:08:14 ( 10.05, 155.80)
7 07/10/2018 02:14:38 ( 13.18, 165.59) 07/10/2018 02:17:20 ( 22.69, 163.30)
8 07/10/2018 03:55:14 ( 10.01, 140.95) 07/10/2018 03:57:00 ( 16.24, 139.50)
9 07/10/2018 14:45:37 ( 22.69, 163.56) 07/10/2018 14:49:13 ( 10.01, 160.55)
10 07/11/2018 03:36:12 ( 10.05, 145.70) 07/11/2018 03:39:47 ( 22.67, 142.69)
11 07/11/2018 14:29:49 ( 11.27, 165.59) 07/11/2018 14:30:10 ( 10.03, 165.31)
12 07/11/2018 16:08:05 ( 22.65, 142.94) 07/11/2018 16:11:40 ( 10.03, 139.93)
13 07/12/2018 03:17:10 ( 10.03, 150.46) 07/12/2018 03:20:45 ( 22.65, 147.46)
14 07/12/2018 15:49:03 ( 22.67, 147.70) 07/12/2018 15:52:38 ( 10.05, 144.70)
15 07/13/2018 02:58:07 ( 10.01, 155.23) 07/13/2018 03:01:43 ( 22.69, 152.21)
16 07/13/2018 15:30:00 ( 22.69, 152.47) 07/13/2018 15:33:36 ( 10.01, 149.45)
17 07/14/2018 02:39:06 ( 10.05, 159.98) 07/14/2018 02:42:41 ( 22.67, 156.97)
18 07/14/2018 15:10:59 ( 22.65, 157.22) 07/14/2018 15:14:34 ( 10.03, 154.21)
19 07/15/2018 02:20:04 ( 10.03, 164.74) 07/15/2018 02:23:39 ( 22.65, 161.74)
20 07/15/2018 14:51:56 ( 22.67, 161.98) 07/15/2018 14:55:31 ( 10.05, 158.98)
21 07/16/2018 03:42:31 ( 10.01, 144.13) 07/16/2018 03:46:07 ( 22.69, 141.11)
22 07/16/2018 14:34:14 ( 18.00, 165.60) 07/16/2018 14:36:30 ( 10.01, 163.73)
23 07/16/2018 16:14:24 ( 22.68, 141.37) 07/16/2018 16:16:35 ( 15.00, 139.51)
24 07/17/2018 03:23:30 ( 10.05, 148.88) 07/17/2018 03:27:05 ( 22.68, 145.88)
25 07/17/2018 15:55:22 ( 22.65, 146.12) 07/17/2018 15:58:57 ( 10.03, 143.12)
26 07/18/2018 03:04:27 ( 10.03, 153.65) 07/18/2018 03:08:02 ( 22.66, 150.64)
27 07/18/2018 15:36:20 ( 22.66, 150.89) 07/18/2018 15:39:55 ( 10.04, 147.88)
28 07/19/2018 02:45:25 ( 10.01, 158.41) 07/19/2018 02:49:01 ( 22.70, 155.39)
29 07/19/2018 15:17:17 ( 22.68, 155.65) 07/19/2018 15:20:53 ( 10.01, 152.63)
30 07/20/2018 02:26:23 ( 10.05, 163.16) 07/20/2018 02:29:58 ( 22.68, 160.16)


NCC Satellite Cal/Val Overpasses Prediction Service
